Regional Weather Roundup
Issued by NWS

Home | Current Version | Previous Version | Graphics & Text | Print | Product List | Glossary On
Versions: 1 2 3 4 5 6 7 8 9 10 11 12 13 14 15 16 17 18 19 20 21 22 23 24 25 26 27 28 29 30 31 32 33 34 35 36 37 38 39 40 41 42 43 44 45 46 47 48 49 50
000
ASUS43 KLSX 051157
RWRMO

WEATHER SUMMARY FOR MISSOURI
NATIONAL WEATHER SERVICE SPRINGFIELD MO
600 AM CST MON DEC 05 2016

NOTE: "FAIR" INDICATES FEW OR NO CLOUDS BELOW 12,000 FEET WITH NO
       SIGNIFICANT WEATHER AND/OR OBSTRUCTIONS TO VISIBILITY.
       CURRENT SKY AND/OR WEATHER CONDITIONS ARE NOT AVAILABLE FOR
       CHILLICOTHE AND FARMINGTON.

MOZ001>031-035>038-043-044-053-054-051300-
...NORTHERN AND WESTERN MISSOURI...

CITY           SKY/WX    TMP DP  RH WIND       PRES   REMARKS
KANSAS CTY INT CLEAR     32  29  88 S10       29.91F WCI  24
6HR MIN TEMP:  29; 6HR MAX TEMP:  34;

LEE`S SUMMIT   CLEAR     35  33  92 S10       29.93F WCI  27
6HR MIN TEMP:  34; 6HR MAX TEMP:  37;

ST JOSEPH      CLEAR     28  27  96 S6        29.90F FOG     WCI  22
6HR MIN TEMP:  24; 6HR MAX TEMP:  31;

CHILLICOTHE      N/A     28  27  96 CALM      29.95S
6HR MIN TEMP:  25; 6HR MAX TEMP:  30; 6HR PCP:  0.01;


$$
MOZ066>068-077>081-088>096-101>105-051300-
...SOUTHWEST MISSOURI...

CITY           SKY/WX    TMP DP  RH WIND       PRES   REMARKS
SPRINGFIELD    FOG       31  30  96 SE6       29.96F VSB 1/2 WCI  25
6HR MIN TEMP:  29; 6HR MAX TEMP:  32;

JOPLIN         CLOUDY    35  35 100 SE3       29.96F
6HR MIN TEMP:  32; 6HR MAX TEMP:  36;


$$
MOZ032>034-039>042-045>050-055>058-069>072-051300-
...CENTRAL MISSOURI...

CITY           SKY/WX    TMP DP  RH WIND       PRES   REMARKS
COLUMBIA       FOG       28  28 100 S8        29.99F VSB 1/4 WCI  20
JEFFERSON CITY CLOUDY    28  27  96 SE6       30.02S FOG     WCI  22
6HR MIN TEMP:  26; 6HR MAX TEMP:  29;

ROLLA          CLOUDY    32  32 100 S7        29.99S FOG     WCI  26
6HR MIN TEMP:  25; 6HR MAX TEMP:  32;

SEDALIA        PTCLDY    32  30  92 S8        29.98R WCI  25
6HR MIN TEMP:  30; 6HR MAX TEMP:  36;

WARRENSBURG    CLEAR     32  32 100 S7        29.97R WCI  26

$$
MOZ051-052-059>065-051300-
...EAST CENTRAL MISSOURI...

CITY           SKY/WX    TMP DP  RH WIND       PRES   REMARKS
ST LOUIS INTL  CLOUDY    37  32  82 S8        30.04S
6HR MIN TEMP:  32; 6HR MAX TEMP:  37;

SPIRIT OF STL  FOG       27  27 100 CALM      30.04R VSB 1/2

$$
MOZ072>076-082>087-097>100-106>115-051300-
...SOUTH CENTRAL AND SOUTHEAST MISSOURI...

CITY           SKY/WX    TMP DP  RH WIND       PRES   REMARKS
CAPE GIRARDEAU PTCLDY    32  30  92 CALM      30.06S
6HR MIN TEMP:  31; 6HR MAX TEMP:  42;

FARMINGTON     CLOUDY    28  28 100 CALM      30.04S FOG
POPLAR BLUFF   PTCLDY    32  31  96 N6        30.04F WCI  26
6HR MIN TEMP:  31; 6HR MAX TEMP:  39;

WEST PLAINS    CLOUDY    34  33  96 CALM      30.02F
6HR MIN TEMP:  27; 6HR MAX TEMP:  34;


$$



USA.gov is the U.S. government's official web portal to all federal, state and local government web resources and services.